Frederick, MD

1:52 PM EDT on April 29, 2017 (GMT -0400)
Frederick Municipal

Weather History for KFDK - December, 2013

Change the Weather History Date:

Wednesday, December 4, 2013

  Actual Average (KHGR) Record (KHGR)
Temperature  
Mean Temperature 42 °F -  
Max Temperature 55 °F 44 °F 70 °F (1998)
Min Temperature 30 °F 31 °F 14 °F (2002)
Degree Days  
Heating Degree Days 22    
Moisture  
Dew Point 40 °F    
Average Humidity 92    
Maximum Humidity 100    
Minimum Humidity 67    
Precipitation  
Precipitation 0.00 in - - ()
Sea Level Pressure  
Sea Level Pressure 30.07 in    
Wind  
Wind Speed 1 mph (NNE)    
Max Wind Speed 4 mph    
Max Gust Speed -    
Visibility 6 miles    
Events      
Averages and records for this station are not official NWS values.
T = Trace of Precipitation, MM = Missing Value Source: NWS Daily Summary

Daily Weather History Graph

Daily Weather History Graph

Search for Another Location

Airport or City:

Trip Planner

Search our weather history database for the weather conditions in past years. The results will help you decide how hot, cold, wet, or windy it might be!

Date:

Astronomy

Dec. 04, 2013 Rise Set
Actual Time 7:13 AM EST 4:45 PM EST
Civil Twilight 6:43 AM EST 5:15 PM EST
Nautical Twilight 6:10 AM EST 5:49 PM EST
Astronomical Twilight 5:37 AM EST 6:21 PM EST
Moon 8:40 AM EST (12/4) 6:53 PM EST (12/4)
Length of Visible Light 10h 32m
Length of Day
9h 32m
Waxing Crescent, 4% of the Moon is Illuminated
Dec 4
Waxing Crescent
Dec 9
First Quarter
Dec 17
Full
Dec 25
Last Quarter
Jan 1
New

Hourly Weather History & Observations

Time (EST) Temp. Windchill Dew Point Humidity Pressure Visibility Wind Dir Wind Speed Gust Speed Precip Events Conditions
12:00 AM 32.0 °F - 32.0 °F 100% 30.02 in 5.0 mi Calm Calm - N/A   Clear
12:20 AM 33.8 °F - 33.8 °F 100% 30.03 in 5.0 mi Calm Calm - N/A   Clear
12:40 AM 33.8 °F - 33.8 °F 100% 30.03 in 5.0 mi Calm Calm - N/A   Clear
1:00 AM 33.8 °F - 33.8 °F 100% 30.02 in 5.0 mi Calm Calm - N/A   Clear
1:20 AM 32.0 °F 28.7 °F 32.0 °F 100% 30.03 in 5.0 mi NW 3.5 mph - N/A   Clear
1:40 AM 33.8 °F - 33.8 °F 100% 30.04 in 5.0 mi Calm Calm - N/A   Clear
2:00 AM 32.0 °F - 32.0 °F 100% 30.03 in 5.0 mi Calm Calm - N/A   Clear
2:20 AM 32.0 °F - 32.0 °F 100% 30.04 in 5.0 mi Calm Calm - N/A   Clear
2:40 AM 33.8 °F - 33.8 °F 100% 30.05 in 5.0 mi Calm Calm - N/A   Clear
3:00 AM 32.0 °F - 32.0 °F 100% 30.07 in 4.0 mi Calm Calm - N/A   Scattered Clouds
3:20 AM 33.8 °F 30.8 °F 33.8 °F 100% 30.06 in 4.0 mi East 3.5 mph - N/A   Overcast
3:40 AM 33.8 °F 30.8 °F 33.8 °F 100% 30.06 in 5.0 mi East 3.5 mph - N/A   Overcast
4:00 AM 35.6 °F - 35.6 °F 100% 30.06 in 5.0 mi Calm Calm - N/A   Overcast
4:20 AM 35.6 °F - 35.6 °F 100% 30.05 in 4.0 mi Calm Calm - N/A   Overcast
4:40 AM 33.8 °F - 33.8 °F 100% 30.04 in 4.0 mi Calm Calm - N/A   Scattered Clouds
5:00 AM 32.0 °F 28.7 °F 32.0 °F 100% 30.03 in 3.0 mi NNW 3.5 mph - N/A   Clear
5:20 AM 32.0 °F - 32.0 °F 100% 30.04 in 3.0 mi Calm Calm - N/A   Clear
5:40 AM 32.0 °F - 32.0 °F 100% 30.05 in 1.5 mi Calm Calm - N/A   Mist
6:50 AM 32.0 °F - 32.0 °F 100% 30.07 in 5.0 mi Calm Calm - N/A   Haze
7:45 AM 30.2 °F - 30.2 °F 100% 30.08 in 5.0 mi Calm Calm - N/A   Clear
8:45 AM 35.6 °F - 35.6 °F 100% 30.10 in 5.0 mi Calm Calm - N/A   Overcast
9:45 AM 39.2 °F 37.0 °F 37.4 °F 93% 30.12 in 4.0 mi North 3.5 mph - N/A   Haze
10:45 AM 44.6 °F 43.1 °F 39.2 °F 81% 30.12 in 5.0 mi Variable 3.5 mph - N/A   Haze
11:50 AM 50.0 °F - 42.8 °F 76% 30.09 in 5.0 mi Calm Calm - N/A   Haze
12:45 PM 53.6 °F - 44.6 °F 72% 30.07 in 5.0 mi Calm Calm - N/A   Haze
1:48 PM 55.4 °F - 44.6 °F 67% 30.04 in 5.0 mi Calm Calm - N/A   Haze
2:45 PM 55.4 °F - 46.4 °F 72% 30.04 in 5.0 mi North 3.5 mph - N/A   Haze
3:45 PM 55.4 °F - 46.4 °F 72% 30.03 in 5.0 mi Calm Calm - N/A   Haze
4:45 PM 55.4 °F - 48.2 °F 77% 30.05 in 5.0 mi Calm Calm - N/A   Haze
5:45 PM 53.6 °F - 46.4 °F 77% 30.07 in 5.0 mi Calm Calm - N/A   Overcast
6:45 PM 53.6 °F - 46.4 °F 77% 30.08 in 5.0 mi Calm Calm - N/A   Haze
7:45 PM 51.8 °F - 46.4 °F 82% 30.08 in 5.0 mi Calm Calm - N/A   Overcast
8:05 PM 51.8 °F - 46.4 °F 82% 30.08 in 10.0 mi Calm Calm - N/A   Overcast
8:25 PM 51.8 °F - 46.4 °F 82% 30.09 in 10.0 mi Calm Calm - N/A   Overcast
8:45 PM 50.0 °F - 46.4 °F 87% 30.09 in 10.0 mi East 3.5 mph - N/A   Overcast
9:05 PM 50.0 °F - 46.4 °F 87% 30.10 in 10.0 mi Calm Calm - N/A   Overcast
9:25 PM 50.0 °F - 48.2 °F 94% 30.10 in 10.0 mi Calm Calm - N/A   Overcast
9:45 PM 50.0 °F - 48.2 °F 94% 30.10 in 10.0 mi Calm Calm - N/A   Overcast
10:05 PM 50.0 °F - 48.2 °F 94% 30.10 in 10.0 mi Calm Calm - N/A   Overcast
10:25 PM 50.0 °F - 48.2 °F 94% 30.10 in 7.0 mi Calm Calm - N/A   Overcast
10:45 PM 50.0 °F - 48.2 °F 94% 30.09 in 7.0 mi Calm Calm - N/A   Overcast
11:05 PM 50.0 °F - 48.2 °F 94% 30.10 in 7.0 mi Calm Calm - N/A   Overcast
11:25 PM 50.0 °F - 48.2 °F 94% 30.10 in 7.0 mi Calm Calm - N/A   Overcast
11:45 PM 50.0 °F - 50.0 °F 100% 30.09 in 7.0 mi Calm Calm - N/A   Overcast